Location: Arrington
(35.8681°N, 86.7092°W)
Time: 11:13:58
(UTC+00:00)

STARLINK 1020 - Pass Details

Date: 23 November 2019
Orbit: 348 x 351 km, 53.0° (Epoch: 13 December)

Event Time Altitude Azimuth Distance (km) Brightness Sun altitude
Exits shadow 11:30:56 15° 243° (WSW) 1,059 4.7 -12.2°
Maximum altitude 11:33:10 52° 318° (NW) 440 2.8 -11.7°
Drops below altitude 10° 11:36:02 10° 37° (NE) 1,311 5.8 -11.2°
Sets 11:38:05 0° 42° (NE) 2,156 7.0 -10.8°
